www.pogodaiklimat.ru

Погода и климат >> Архив погоды >> Кувейт >> Экспериментальная ферма


ПОГОДА на Экспериментальной ферме

  • Прогноз погоды на Экспериментальной ферме
  • Монитор погоды на Экспериментальной ферме

АРХИВ ПОГОДЫ на Экспериментальной ферме

Время (UTC), дата Ветер
(напр.,м/с)
 
Видим.   Явления Облачность Т
(С)
Тd
(С)
f
(%)
Тe
(С)
Тes
(С)
Комфортность P
(гПа)
Po
(гПа)
Тmin
(С)
Tmax
(С)
R
(мм)
R24
(мм)
S
(см)
00 15.09 ЮВ 1-1
{3}
н/о н/о +29.4 +7.4 25 +28 +28 жарко 1005.5 1003.1
03 15.09 С 1-1
{2}
н/о н/о +27.3 +9.1 32 +27 +27 жарко 1006.8 1004.4 1
06 15.09 ЮЗ 1-2
{4}
н/о н/о +39.1 +4.3 12 +36 +36 очень
жарко
1007.9 1005.6 222
09 15.09 С 1-3
{4}
н/о н/о +43.6 +7.0 11 +41 +41 опасность
перегрева
1006.6 1004.3 344
12 15.09 В 1-3
{5}
н/о н/о +44.0 +7.9 12 +42 +42 опасность
перегрева
1005.0 1002.7 243
15 15.09 ЮВ 2-5
{5}
н/о н/о +38.8 +6.3 14 +36 +36 очень
жарко
1005.3 1003.0 8
18 15.09 Ю 2-3
{5}
н/о н/о +35.6 +11.2 23 +35 +35 очень
жарко
1006.9 1004.6
21 15.09 Ю 2-4
{5}
н/о н/о +33.7 +11.1 25 +33 +33 жарко 1006.6 1004.2 +27.0 +45.2
00 16.09 ЮЗ 2-3
{5}
н/о н/о +33.2 +7.5 20 +31 +31 жарко 1006.3 1003.9
03 16.09 Ю 1-2
{5}
н/о н/о +28.5 +8.9 29 +28 +28 жарко 1007.6 1005.2
06 16.09 Ю 2-3
{5}
н/о н/о +41.2 +4.3 11 +38 +38 очень
жарко
1008.5 1006.2 217
09 16.09 С 1-3
{4}
н/о н/о +45.0 +4.8 9 +42 +42 опасность
перегрева
1006.8 1004.5 338
12 16.09 СВ 2-4
{7}
н/о н/о +41.6 +14.7 21 +42 +42 опасность
перегрева
1005.5 1003.2 263
15 16.09 СВ 1-2
{5}
н/о н/о +34.4 +13.1 28 +35 +35 очень
жарко
1005.7 1003.4 9
18 16.09 Ю 1-2
{5}
н/о н/о +33.0 +12.8 29 +33 +33 жарко 1006.7 1004.3
21 16.09 ЮЗ 1-2
{2}
н/о н/о +29.1 +15.9 45 +32 +32 душно 1006.2 1003.8 +28.3 +45.8
00 17.09 ЮЗ 1-3
{3}
н/о н/о +30.6 +12.1 32 +31 +31 жарко 1005.7 1003.3
03 17.09 ЮВ 1-2
{3}
н/о н/о +27.2 +12.8 41 +29 +29 жарко 1006.6 1004.2
06 17.09 СЗ 1-2
{3}
н/о н/о +39.0 +9.6 17 +37 +37 очень
жарко
1007.4 1005.1 216
09 17.09 В 1-3
{3}
н/о н/о +45.1 +5.7 9 +42 +42 опасность
перегрева
1005.6 1003.3 346
12 17.09 СВ 1-5
{6}
н/о н/о +45.1 +5.5 9 +42 +42 опасность
перегрева
1004.1 1001.8 254
15 17.09 ЮВ 2-3
{5}
н/о н/о +39.1 +3.6 11 +36 +36 очень
жарко
1003.7 1001.4 8
18 17.09 ЮВ 1-3
{5}
н/о н/о +36.5 +1.2 11 +33 +33 жарко 1005.1 1002.8
21 17.09 С 1-1
{4}
н/о н/о +31.3 +6.4 21 +30 +30 жарко 1005.2 1002.8 +27.1 +46.4
00 18.09 штиль 0-1
{4}
н/о н/о +28.9 +5.5 23 +28 +28 жарко 1004.9 1002.5
03 18.09 З 1-1
{1}
н/о н/о +27.8 +8.5 30 +28 +28 жарко 1006.3 1003.9
06 18.09 СЗ 3-6
{6}
н/о н/о +37.2 +10.5 20 +36 +36 очень
жарко
1007.7 1005.4 222
09 18.09 С 2-5
{6}
н/о н/о +46.0 +6.4 9 +43 +43 опасность
перегрева
1006.1 1003.8 353
12 18.09 С 2-3
{8}
н/о н/о +46.5 +6.7 9 +44 +44 опасность
перегрева
1004.5 1002.2 248
15 18.09 С 1-2
{6}
н/о н/о +37.8 +6.2 14 +35 +35 очень
жарко
1005.2 1002.9 5
18 18.09 СЗ 3-6
{8}
н/о н/о +38.6 +9.4 17 +37 +37 очень
жарко
1007.0 1004.7
21 18.09 СЗ 4-7
{10}
н/о н/о +35.8 +9.1 20 +34 +34 очень
жарко
1007.1 1004.8 +27.7 +48.0
00 19.09 СЗ 3-7
{10}
н/о н/о +33.4 +7.4 20 +32 +32 жарко 1007.2 1004.8
03 19.09 СЗ 4-8
{9}
н/о н/о +31.9 +6.3 20 +30 +30 жарко 1008.6 1006.2 1
06 19.09 СЗ 3-11
{11}
н/о н/о +35.6 +7.1 17 +33 +33 жарко 1009.9 1007.6 241
09 19.09 С 3-7
{10}
н/о н/о +43.7 +2.8 8 +40 +40 очень
жарко
1008.4 1006.1 383
12 19.09 С 3-9
{10}
н/о н/о +44.2 +2.1 8 +41 +41 опасность
перегрева
1006.8 1004.5 261
15 19.09 С 2-5 н/о н/о +38.5 +11.6 20 +38 +38 очень
жарко
1007.5 1005.2
18 19.09 СЗ 2-5 н/о н/о +35.6 +11.3 23 +35 +35 очень
жарко
1008.7 1006.4
21 19.09 СЗ 2-4
{6}
н/о н/о +34.3 +10.6 24 +34 +34 очень
жарко
1008.0 1005.6 +31.8 +45.3
00 20.09 СЗ 3-5
{7}
н/о н/о +32.8 +9.6 24 +32 +32 жарко 1007.3 1004.9
03 20.09 З 3-5
{6}
н/о н/о +31.6 +7.1 22 +30 +30 жарко 1007.4 1005.0
06 20.09 СЗ 4-8
{10}
н/о н/о +36.5 +6.6 16 +34 +34 очень
жарко
1007.6 1005.3 254
09 20.09 СЗ 3-9
{11}
н/о н/о +41.3 +9.5 15 +40 +40 очень
жарко
1005.3 1003.0 389
12 20.09 СЗ 2-5
{11}
н/о н/о +42.5 +11.1 16 +42 +42 опасность
перегрева
1003.6 1001.3 276
15 20.09 В 1-2
{6}
н/о н/о +32.9 +17.4 40 +37 +37 очень
душно
1004.1 1001.7 5
18 20.09 ЮВ 1-1
{6}
н/о н/о +30.4 +11.8 32 +31 +31 жарко 1005.4 1003.0
21 20.09 ЮЗ 1-1
{3}
н/о н/о +28.6 +15.7 46 +32 +32 душно 1004.6 1002.2 +28.5 +43.5
00 21.09 С 1-1
{3}
н/о н/о +27.0 +23.0 79 +36 +36 очень
душно
1003.6 1001.2
03 21.09 С 1-2
{1}
н/о н/о +25.1 +15.1 54 +28 +28 жарко 1004.8 1002.4
06 21.09 С 2-4
{4}
н/о н/о +34.1 +20.1 44 +40 +40 очень
душно
1005.9 1003.6 245
09 21.09 В 2-4
{5}
н/о н/о +38.5 +16.6 28 +41 +41 опасность
перегрева
1004.2 1001.9 393
12 21.09 СВ 2-5
{7}
н/о н/о +37.3 +16.0 28 +39 +39 очень
душно
1003.2 1000.9 259
15 21.09 В 1-2
{7}
н/о н/о +34.1 +10.3 23 +33 +33 жарко 1002.9 1000.6 5
18 21.09 ЮВ 1-3
{7}
н/о н/о +31.4 +22.8 60 +41 +41 опасность
перегрева
1004.4 1002.0
21 21.09 ЮВ 1-2
{3}
н/о н/о +29.3 +22.4 66 +38 +38 очень
душно
1004.0 1001.6 +24.5 +39.9

 

Местоположение метеостанции Экспериментальная ферма (Кувейт): широта 29.29 долгота 47.94 высота над уровнем моря 21 м.

В архиве по умолчанию представлена погода на Экспериментальной ферме за последнюю неделю. Архивные данные за месяц целиком и за предыдущие месяцы, начиная с января 2011 года, Вы можете получить, выбрав интересующий диапазон дат из раскрывающегося списка и нажав кнопку "Ввод!".


*Определитесь, кто Вы:
робот инопланетянин человек

Внимание! Время в таблицах - всемирное. Для получения местного времени необходимо прибавить поправку, которая равна 3 ч.

Смотрите также архив погоды в соседних городах и на ближайших метеорологических станциях:

Погода в Эль-Кувейте (Кувейт) (8 км)
Погода в Кувейт Сити (Кувейт) (12 км)
Погода в Аль-Шуаиба (Кувейт) (17 км)
Погода в Сулайбии (Кувейт) (21 км)
Погода в Эль-Джахра (Кувейт) (26 км)
Погода Остров Файлака (Кувейт) (39 км)
Погода в Минагише (Кувейт) (47 км)
Погода на Метеостанции Jal Aliyah (Кувейт) (50 км)
Погода на Метеостанции Sabriyah (Кувейт) (52 км)
Погода в Порту Juluiah (Кувейт) (57 км)

Пояснения к столбцам:

Ветер - указаны скорость ветра в м/с - средняя за 10 мин, порывы в срок и между сроками (в фигурных скобках) и направление, откуда дует ветер: С - северный, СВ - северо-восточный, В - восточный, ЮВ - юго-восточный, Ю - южный, ЮЗ - юго-западный, З - западный, СЗ - северо-западный.
Видимость - горизонтальная дальность видимости в метрах или километрах. При видимости от 1 до 10 км при отсутствии осадков обычно наблюдается дымка, при ухудшении видимости до 1 км и менее - туман. В сухую погоду видимость может ухудшаться дымом, пылью или мглою.
Явления - указаны атмосферные явления, наблюдавшиеся в срок или в последний час перед сроком; фигурными скобками обозначены явления, наблюдавшиеся между сроками (за 1-3 часа до срока); квадратными скобками обозначены град или гололедные отложения с указанием их диаметра в мм.
Облачность - указаны через наклонную черту общая и нижняя облачность в баллах и высота нижней границы облаков в метрах; квадратными скобками обозначены формы облаков: Ci - перистые, Cs - перисто-слоистые, Cc - перисто-кучевые, Ac - высококучевые, As - высокослоистые, Sc - слоисто-кучевые, Ns - слоисто-дождевые, Cu - кучевые, Cb - кучево-дождевые. Подробнее классификацию облаков см. в Атласе облаков (PDF).
T - Температура воздуха - температура, измеренная на высоте 2 м над землей.
Td - Температура точки росы - температура, при понижении до которой содержащийся в воздухе водяной пар достигнет насыщения.
f - Относительная влажность воздуха - влажноcть воздуха, измеренная на высоте 2 м над землей.
Te - Эффективная температура - температура, которую ощущает одетый по сезону человек в тени. Характеристика душности погоды. При расчете учитывается влияние влажности воздуха и скорости ветра на теплоощущения человека.
Tes - Эффективная температура на солнце - температура, которую ощущает человек, с поправкой на солнечный нагрев. Характеристика знойности погоды. Зависит от высоты солнца над горизонтом, облачности и скорости ветра. Ночью, в пасмурную погоду, а также при ветре 12 м/с и более поправка равна нулю.
P - Атмосферное давление - приведенное к уровню моря атмосферное давление.
Po - Атмосферное давление - измеренное на уровне метеостанции атмосферное давление.
Tmin - Минимальная температура - минимум температуры воздуха на высоте 2 м над землей.
Tmax - Максимальная температура - максимум температуры воздуха на высоте 2 м над землей.
R - Количество осадков - Количество выпавших осадков за период времени, мм. При наведении курсора мыши на число - период времени, за который выпало указанное количество осадков.
R24 - Количество осадков - Количество выпавших осадков за 24 часа, мм.
S - Снежный покров - Высота снежного покрова, см. При наведении курсора мыши на число - состояние снежного покрова и степень покрытия местности в баллах.